Content
SEND FEEDBACK

Daily
Averages
Monthly
Summary
United States of America

PUT IN BAY, OHIO


Home > North America > United States > Ohio
Elevation: 561 feet     Latitude: 41 39N     Longitude: 082 48W

WEATHER
 
SELECT A DAY
Number of Records: 124,886;   Date Range: 12/10/00 - 10/22/14
 
SHARE

PRINT THIS DATA

[ ← Previous Day ]
WEATHER ALMANAC - MAY 7, 2013
[ Next Day → ]
[ °C ]   °F
Weather ElementAverageHighLow
Temperature61.9 °F71.8 °F (5:00 pm)50.2 °F (6:00 am)
Dewpoint49 °F54 °F (11:00 am)37.6 °F (1:00 am)
Humidity62.8 %86 % (6:00 am)42 % (2:00 pm)
Barometer30.01 in30.05 in (9:00 am)29.98 in (5:00 pm)
Wind Speed3.9 mph8.1 mph (4:00 pm)
Weather ElementAverage
Wind DirectionE (87.4 °)

Weather ElementTotal
Precipitation---
Heating Degree Days4 (Base 65)
Growing Degree Days11 (Base 50)
Averaged from 27 records on May 7, 2013
WEATHER CONDITIONS BREAKOUT
WIND DIRECTION BREAKOUT
WEATHER BY HOUR - MAY 7, 2013
[ °C ]   °F
Local TimeTemperatureDewpointHumidityBarometerVisibilityWind DirectionWind SpeedGust SpeedPrecipitationEventsConditions
1:00 AM56.8 °F37.6 °F49 %30.00 inESE (110°)2.3 mph
2:00 AM55.0 °F44.0 °F57 %30.00 inSE (130°)4.6 mph
2:00 AM54.7 °F44.1 °F67 %30.00 inSE (130°)4.6 mph
3:00 AM52.5 °F45.1 °F76 %29.99 inCalm
4:00 AM51.3 °F45.7 °F81 %29.99 inENE (60°)2.3 mph
5:00 AM51.4 °F46.4 °F83 %30.00 inEast (80°)2.3 mph
6:00 AM50.2 °F46.0 °F86 %30.01 inESE (110°)1.2 mph
7:00 AM52.2 °F48.0 °F86 %30.02 inEast (90°)1.2 mph
8:00 AM57.0 °F51.0 °F74 %30.04 inNE (40°)2.3 mph
8:00 AM56.8 °F50.9 °F80 %30.04 inNE (40°)2.3 mph
9:00 AM60.4 °F52.0 °F74 %30.05 inENE (60°)4.6 mph
10:00 AM63.7 °F52.7 °F67 %30.04 inENE (60°)5.8 mph
11:00 AM66.9 °F54.0 °F63 %30.04 inESE (120°)4.6 mph
12:00 PM67.6 °F52.5 °F58 %30.03 inESE (120°)5.8 mph
1:00 PM69.4 °F53.1 °F56 %30.02 inESE (110°)4.6 mph
2:00 PM71.0 °F53.0 °F42 %30.01 inEast (80°)6.9 mph
2:00 PM71.2 °F52.7 °F52 %30.01 inEast (80°)6.9 mph
3:00 PM71.6 °F52.7 °F51 %30.00 inESE (110°)6.9 mph
4:00 PM70.5 °F51.3 °F50 %29.99 inSE (140°)8.1 mph
5:00 PM71.8 °F50.9 °F48 %29.98 inESE (120°)6.9 mph
6:00 PM71.6 °F48.2 °F43 %29.98 inESE (110°)4.6 mph
7:00 PM67.1 °F49.3 °F53 %29.98 inSE (140°)6.9 mph
8:00 PM65.0 °F49.0 °F45 %29.98 inESE (110°)2.3 mph
8:00 PM65.1 °F48.6 °F55 %29.98 inESE (110°)2.3 mph
9:00 PM60.8 °F47.8 °F62 %29.98 inCalm
10:00 PM58.6 °F49.1 °F71 %30.00 inEast (90°)2.3 mph
11:00 PM59.9 °F48.4 °F66 %30.00 inNorth (10°)3.5 mph
Hourly data recorded from CXHA, located miles away from Put In Bay, Ohio







STORIES FROM OUR PARTNERS